N98AL KJFK-KJFK

Flight info

Callsign N98AL
Flight time N/A
Altitude 1500
Route VFR
Aircraft B06/L-V/C

Departure

Time 2026-04-30 17:48
Airport John F. Kennedy International Airport (KJFK)

Arrival

Time N/A
Airport John F. Kennedy International Airport (KJFK)
Time Latitude Longitude Altitude Speed Heading
2026-04-30 17:39 40.66695 -73.83757 596 ft 78 kts 124°
2026-04-30 17:41 40.64996 -73.81203 69 ft 20 kts 127°
2026-04-30 17:42 40.64943 -73.81081 9 ft 0 kts 123°
2026-04-30 17:42 40.64940 -73.81078 9 ft 0 kts 122°
2026-04-30 17:47 40.64963 -73.80265 429 ft 88 kts 71°
2026-04-30 17:48 40.67173 -73.78536 877 ft 99 kts 357°
2026-04-30 17:48 40.67732 -73.80352 752 ft 101 kts 270°
2026-04-30 17:49 40.68526 -73.83785 478 ft 100 kts 269°
2026-04-30 17:50 40.68851 -73.87161 451 ft 93 kts 287°
2026-04-30 17:51 40.69255 -73.89636 346 ft 102 kts 287°
2026-04-30 17:52 40.70009 -73.92093 374 ft 92 kts 288°
2026-04-30 17:53 40.71439 -73.95840 505 ft 101 kts 298°
2026-04-30 17:54 40.74209 -73.96191 340 ft 112 kts 13°
2026-04-30 17:55 40.76770 -73.94150 225 ft 96 kts 27°
2026-04-30 17:56 40.77520 -73.95470 612 ft 70 kts 268°
2026-04-30 17:57 40.77719 -73.97303 1028 ft 75 kts 281°
2026-04-30 17:58 40.77529 -73.99837 785 ft 100 kts 244°
2026-04-30 17:59 40.75792 -74.02541 705 ft 93 kts 216°
2026-04-30 18:00 40.73170 -74.02769 662 ft 97 kts 220°
2026-04-30 18:00 40.73805 -74.05002 649 ft 93 kts 314°
2026-04-30 18:01 40.74443 -74.06437 684 ft 95 kts 296°
2026-04-30 18:02 40.75451 -74.08673 613 ft 96 kts 300°
2026-04-30 18:02 40.75506 -74.11000 716 ft 92 kts 272°
2026-04-30 18:03 40.75232 -74.12519 967 ft 10 kts 236°
2026-04-30 18:04 40.75270 -74.12174 1507 ft 8 kts 238°
2026-04-30 18:05 40.74562 -74.13522 1753 ft 99 kts 227°
2026-04-30 18:06 40.74749 -74.16859 1234 ft 98 kts 283°
2026-04-30 18:07 40.75507 -74.19747 1093 ft 72 kts 303°
2026-04-30 18:08 40.76315 -74.21315 1116 ft 71 kts 302°
2026-04-30 18:09 40.77249 -74.23569 1083 ft 74 kts 317°
2026-04-30 18:10 40.78891 -74.24871 1131 ft 66 kts 348°
2026-04-30 18:11 40.79938 -74.26815 1071 ft 64 kts 302°
2026-04-30 18:11 40.80684 -74.28417 1106 ft 70 kts 304°
2026-04-30 18:12 40.81259 -74.30237 1057 ft 78 kts 288°
2026-04-30 18:13 40.81835 -74.31368 1005 ft 76 kts 317°
2026-04-30 18:13 40.83042 -74.32543 953 ft 72 kts
2026-04-30 18:14 40.83763 -74.31735 1010 ft 67 kts 33°
2026-04-30 18:15 40.84834 -74.30429 944 ft 76 kts 34°
2026-04-30 18:15 40.86069 -74.29245 554 ft 65 kts 27°
2026-04-30 18:16 40.86545 -74.28825 330 ft 21 kts 28°
2026-04-30 18:16 40.86784 -74.28629 210 ft 21 kts 30°
2026-04-30 18:17 40.86908 -74.28528 197 ft 16 kts 27°
2026-04-30 18:17 40.86985 -74.28474 175 ft 9 kts 32°
2026-04-30 18:17 40.87060 -74.28412 181 ft 2 kts 30°
2026-04-30 18:18 40.87096 -74.28380 201 ft 7 kts 31°
2026-04-30 18:18 40.87134 -74.28341 185 ft 7 kts 91°
2026-04-30 18:18 40.87133 -74.28320 182 ft 1 kts 118°
2026-04-30 18:18 40.87128 -74.28298 182 ft 2 kts 44°
2026-04-30 18:19 40.87130 -74.28292 180 ft 2 kts 59°
2026-04-30 18:19 40.87124 -74.28288 179 ft 2 kts 22°
2026-04-30 18:19 40.87158 -74.28265 179 ft 4 kts 30°
2026-04-30 18:19 40.87181 -74.28249 182 ft 4 kts 34°
2026-04-30 18:20 40.87205 -74.28226 181 ft 4 kts 72°
2026-04-30 18:20 40.87217 -74.28188 184 ft 2 kts 43°
2026-04-30 18:20 40.87221 -74.28144 182 ft 7 kts 121°
2026-04-30 18:20 40.87206 -74.28109 185 ft 4 kts 119°
2026-04-30 18:21 40.87191 -74.28066 187 ft 6 kts 63°
2026-04-30 18:21 40.87221 -74.28033 187 ft 5 kts 33°
2026-04-30 18:21 40.87249 -74.28009 184 ft 3 kts 88°
2026-04-30 18:21 40.87251 -74.27992 177 ft 0 kts 118°